EHI
0 0 0 0 0 0 0 0 0 0 0 0 0 0 0 0 0 0 0 0 0 0 0 0 0 0 0 0 0 0 0 0 0 0 0 0 0 0
0 0 0 0 0 0 0 0 0 0 0 0 0 0 0 0 0 0 0 0 0 0 0 0 0 0 0 0 0 0 0 0 0 0 0 0 0 0
0 0 0 0 0 0 0 0 0 0 0 0 0 0 0 0 0 0 0 0 0 0 0 0 0 0 0 0 0 0 0 0 0 0 0 0 0 0
0 0 0 0 0 0 0 0 0 0 0 0 0 0 0 0 0 0 0 0 0 0 0 0 0 0 0 0 0 0 0 0 0 0 0 0 0 0
0 0 0 0 0 0 0 0 0 0 0 0 0 0 0 0 0 0 0 0 0 0 0 0 0 0 0 0 0 0 0 0 0 0 0 0 0 0
0 0 0 0 0 0 0 0 0 0 0 0 0 0 0 0 0 0 0 0 0 0 0 0 0 0 0 0 0 0 0 0 0 0 0 0 0 0
0 0 0 0 0 0 0 0 0 0 0 0 0 0 0 0 0 0 0 0 0 0 0 0 0 0 0 0 0 0 0 0 0 0 0 0 0 0
0 0 0 0 0 0 0 0 0 0 0 0 0 0 0 0 0 0 0 0 0 0 0 0 0 0 0 0 0 0 0 0 0 0 0 0 0 0
0 0 0 0 0 0 0 0 0 0 0 0 0 0 0 0 0 0 0 0 0 0 0 0 0 0 0 0 0 0 0 0 0 0 0 0 0 0
0 0 0 0 0 0 0 0 0 0 0 0 0 0 0 0 0 0 0 0 0 0 0 0 0 0 0 0 0 0 0 0 0 0 0 0 0 0
0 0 0 0 0 0 0 0 0 0 0 0 0 0 0 0 0 0 0 0 0 0 0 0 0 0 0 0 0 0 0 0 0 0 0 0 0 0
0 0 0 0 0 0 0 0 0 0 0 0 0 0 0 0 0 0 0 0 0 0 0 0 0 0 0 0 0 0 0 0 0 0 0 0 0 0
0 0 0 0 0 0 0 0 0 0 0 0 0 0 0 0 0 0 0 0 0 0 0 0 0 0 0 0 0 0 0 0 0 0 0 0 0 0
0 0 0 0 0 0 0 0 0 0 0 0 0 0 0 0 0 0 0 0 0 0 0 0 0 0 0 0 0 0 0 0 0 0 0 0 0 0
0 0 0 0 0 0 0 0 0 0 0 0 0 0 0 0 0 0 0 0 0 0 0 0 0 0 0 0 0 0 0 0 0 0 0 0 0 0
0 0 0 0 0 0 0 0 0 0 0 0 0 0 0 0 0 0 0 0 0 0 0 0 0 0 0 0 0 0 0 0 0 0 0 0 0 0
0 0 0 0 0 0 0 0 0 0 0 0 0 0 0 0 0 0 0 0 0 0 0 0 0 0 0 0 0 0 0 0 0 0 0 0 0 0
0 0 0 0 0 0 0 0 0 0 0 0 0 0 0 0 0 0 0 0 0 0 0 0 0 0 0 0 0 0 0 0 0 0 0 0 0 0
0 0 0 0 0 0 0 0 0 0 0 0 0 0 0 0 0 0 0 0 0 0 0 0 0 0 0 0 0 0 0 0 0 0 0 0 0 0
0 0 0 0 0 0 0 0 0 0 0 0 0 0 0 0 0 0 0 0 0 0 0 0 0 0 0 0 0 0 0 0 0 0 0 0 0 0
0 0 0 0 0 0 0 0 0 0 0 0 0 0 0 0 0 0 0 0 0 0 0 0 0 0 0 0 0 0 0 0 0 0 0 0 0 0
0 0 0 0 0 0 0 0 0 0 0 0 0 0 0 0 0 0 0 0 0 0 0 0 0 0 0 0 0 0 0 0 0 0 0 0 0 0
0 0 0 0 0 0 0 0 0 0 0 0 0 0 0 0 0 0 0 0 0 0 0 0 0 0 0 0 0 0 0 0 0 0 0 0 0 0
Wind_Speed
6 5 4 3 3 3 3 4 4 2 4 4 3 2 2 2 5 3 4 11 16 17 17 18 19 19 20 20 21 22 22 22 23 23 24 25 25 25
5 6 4 3 3 3 3 3 3 4 4 4 4 3 3 3 7 4 5 14 15 17 18 19 19 20 20 21 22 22 23 23 23 24 24 25 25 25
5 6 6 5 4 3 3 3 3 4 5 4 3 3 3 4 5 4 5 5 6 16 18 19 20 20 20 21 22 22 23 23 23 24 25 25 25 25
7 6 6 5 5 4 3 4 4 4 4 6 4 3 4 4 5 5 5 5 5 13 18 19 19 20 21 21 22 22 23 23 23 24 24 25 25 25
8 8 7 6 6 4 4 5 4 4 4 4 5 3 3 3 4 5 5 5 6 10 15 16 18 20 20 21 22 23 23 23 23 23 24 24 24 24
7 8 8 8 8 7 5 5 4 4 4 4 5 4 4 4 3 4 5 4 5 7 9 12 16 18 20 21 22 22 22 22 23 23 23 23 23 23
7 7 7 9 11 8 6 5 5 4 4 4 5 4 4 3 4 3 5 5 5 5 4 6 7 6 9 15 19 20 22 22 22 23 22 22 22 22
7 6 7 8 11 13 13 11 8 6 5 4 4 5 6 5 4 4 5 4 4 3 3 5 5 6 6 6 15 21 21 21 21 21 21 21 21 22
7 6 5 6 8 5 9 12 10 13 11 6 6 7 6 5 5 5 5 5 6 5 4 6 4 6 6 9 19 20 20 20 20 21 21 21 21 21
7 7 7 6 6 6 5 6 6 7 8 6 6 7 7 6 6 6 6 6 6 5 4 6 4 5 7 6 15 18 18 19 21 21 21 21 21 21
6 6 6 6 10 11 6 6 6 6 9 12 13 12 14 14 10 4 4 5 7 4 3 3 4 5 5 5 8 14 17 20 20 20 20 20 20 19
4 5 9 9 11 11 6 6 7 7 5 6 7 9 7 8 12 5 3 5 6 5 2 2 3 4 5 3 3 5 8 14 19 20 19 19 20 11
4 4 5 10 11 11 9 6 9 8 5 5 4 4 4 4 4 4 4 4 5 6 3 2 3 3 4 6 4 4 5 6 7 10 14 18 19 14
5 4 5 9 10 10 8 8 12 9 3 2 3 3 4 4 4 5 5 6 6 7 6 4 4 4 4 6 6 5 5 6 5 6 6 13 14 17
4 6 6 8 8 6 8 10 8 3 2 3 4 4 4 4 3 3 4 5 5 6 6 5 5 5 4 6 6 6 6 6 4 5 6 7 7 7
3 5 7 6 4 4 5 4 2 3 3 4 4 4 3 2 3 3 3 3 3 4 5 5 5 5 5 6 7 8 6 5 6 7 7 7 6 6
3 2 1 1 2 2 2 3 2 3 3 3 3 3 3 3 3 2 2 2 2 3 4 4 4 5 7 6 6 6 6 6 6 6 7 7 7 6
3 2 3 3 3 3 3 3 3 3 4 4 3 3 3 3 3 2 2 2 3 3 4 4 3 4 3 4 7 6 5 5 6 6 5 6 8 7
3 3 3 4 4 4 4 4 4 4 3 3 4 3 3 3 3 3 2 2 3 4 4 3 2 2 4 5 6 4 4 6 6 6 5 5 7 8
2 3 4 4 4 4 4 4 4 3 3 3 3 3 3 3 3 3 3 3 3 3 4 3 3 3 3 4 5 5 7 5 5 6 6 6 6 9
3 4 4 4 4 4 4 4 4 3 3 3 3 4 3 3 3 3 3 6 4 3 4 4 5 7 3 2 4 5 5 7 8 6 6 6 6 5
4 4 4 4 4 4 4 4 4 4 4 4 4 4 4 3 4 4 3 3 3 3 4 4 4 3 1 2 5 5 6 6 8 11 9 7 4 5
4 4 4 4 4 4 4 4 5 4 4 4 4 4 4 4 3 3 3 3 3 3 3 3 3 2 2 3 3 4 6 6 5 5 5 9 12 12
Wind_Direction
177 176 174 181 173 173 164 160 166 226 270 264 268 262 266 282 299 300 290 309 320 320 318 317 316 315 315 315 315 314 312 310 309 308 306 304 303 302
173 174 181 180 178 176 176 176 173 184 239 249 243 255 274 288 302 302 286 311 315 315 314 314 314 314 314 315 314 312 310 310 310 309 307 306 304 303
180 184 192 181 183 187 180 181 189 183 232 264 245 252 257 270 288 286 281 283 292 308 311 311 312 313 313 314 313 312 312 311 310 309 307 305 304 303
189 187 196 188 194 193 190 200 206 203 214 259 270 258 253 258 267 279 288 292 284 301 308 310 311 312 312 313 313 312 312 311 310 309 308 307 306 305
188 191 196 191 204 204 204 211 215 218 214 242 270 261 263 264 278 282 281 282 288 298 305 307 309 310 312 314 313 313 312 311 310 309 309 308 307 307
192 196 196 198 205 205 210 216 216 221 226 243 264 270 265 266 264 281 291 277 284 292 295 301 305 308 311 312 312 312 311 310 309 309 308 308 307 307
198 204 205 208 212 211 212 212 209 220 228 243 262 272 272 276 271 265 283 287 277 268 275 287 293 290 297 303 308 307 308 310 310 310 310 310 309 309
201 209 214 216 225 231 237 236 222 218 223 231 252 259 267 263 264 269 283 299 296 264 269 281 278 281 285 283 299 307 310 312 313 314 315 313 312 311
199 203 215 221 227 226 243 251 251 250 247 241 245 252 261 259 261 269 266 267 271 273 277 280 269 276 281 294 304 308 312 316 318 318 317 314 314 313
200 202 207 216 218 221 227 239 246 251 255 252 240 249 249 251 243 255 265 272 265 263 256 276 278 275 288 287 297 305 315 320 319 319 319 319 320 318
206 204 206 214 232 239 236 241 254 257 264 263 262 268 275 286 290 286 287 292 294 282 236 253 278 290 282 271 285 304 316 318 319 320 321 322 322 322
207 212 221 227 237 244 236 234 251 258 254 266 270 277 281 287 295 283 261 276 290 292 250 253 275 301 298 272 271 290 303 311 318 321 322 324 324 322
204 213 223 237 247 253 253 237 251 263 249 251 261 265 270 268 270 263 247 242 265 270 263 260 273 268 267 295 291 281 288 300 309 311 318 323 324 323
205 209 219 236 248 257 261 263 272 281 266 255 261 264 263 261 260 260 257 252 247 256 265 255 260 270 285 292 294 295 300 295 298 300 304 318 322 323
210 222 234 246 257 261 269 278 285 278 262 261 263 261 249 250 257 268 272 268 269 266 265 254 252 265 267 279 290 295 306 302 296 303 307 310 307 310
213 227 241 253 261 270 278 285 276 252 255 253 259 258 255 252 253 253 265 278 285 285 273 262 258 256 266 269 276 288 292 291 303 308 307 303 300 299
176 168 191 217 242 260 267 268 264 272 273 258 259 264 262 260 262 251 249 260 267 285 298 297 285 269 255 259 274 279 286 290 292 304 310 309 303 302
181 189 211 221 235 244 253 258 257 256 254 255 256 256 259 259 265 265 253 255 270 278 282 288 309 320 315 284 245 265 282 288 298 304 304 307 307 310
199 206 217 225 235 241 245 247 251 251 247 247 248 247 249 252 258 263 262 264 272 276 281 282 288 299 310 310 294 263 279 299 304 306 303 300 301 305
207 217 227 232 236 241 244 248 252 253 247 245 242 240 239 244 253 257 258 259 270 280 290 291 274 268 272 287 292 293 294 290 298 306 305 302 290 294
223 229 231 234 239 239 243 245 245 245 243 238 237 236 235 234 244 250 254 273 277 271 283 284 273 293 283 282 292 293 293 299 304 302 305 309 310 314
227 231 235 235 236 236 239 240 241 240 240 238 238 237 234 231 238 244 246 254 258 258 267 278 291 304 285 272 290 295 299 307 313 316 310 306 309 316
232 235 239 239 238 235 234 238 238 240 236 234 235 237 236 233 231 231 237 244 254 264 275 289 301 297 276 268 280 291 299 308 312 320 314 323 326 319